Location: Bastelaar
(51.0950°N, 3.8602°E)
Time: 15:35:50
(UTC+00:00)

ARIANE 5 R/B - Pass Details

Date: 18 November 2025
Orbit: 747 x 792 km, 98.8° (Epoch: 12 December)

Event Time Altitude Azimuth Distance (km) Brightness Sun altitude
Rises 17:43:56 0° 182° (S) 3,179 5.9 -17.2°
Reaches altitude 10° 17:46:19 10° 189° (S) 2,260 5.2 -17.5°
Maximum altitude 17:51:02 44° 261° (W) 1,038 3.7 -18.3°
Drops below altitude 10° 17:55:50 10° 333° (NNW) 2,287 5.2 -19.0°
Sets 17:58:16 0° 340° (NNW) 3,222 5.9 -19.4°
